Time,TemperatureF,DewpointF,PressureIn,WindDirection,WindDirectionDegrees,WindSpeedMPH,WindSpeedGustMPH,Humidity,HourlyPrecipIn,Conditions,Clouds,dailyrainin,SoftwareType,DateUTC
2013-03-11 00:00:00,36.1,32.0,30.38,SSE,157,2.1,6.3,88,0.00,,,0.00,Rainwise IP-100,2013-03-11 04:00:00,
2013-03-11 00:01:00,36.1,32.0,30.38,SE,135,1.6,6.3,88,0.00,,,0.00,Rainwise IP-100,2013-03-11 04:01:00,
2013-03-11 00:06:00,36.0,32.0,30.38,SSE,157,6.5,7.7,88,0.00,,,0.00,Rainwise IP-100,2013-03-11 04:06:00,
2013-03-11 00:11:00,36.0,32.0,30.38,SE,135,2.8,6.8,88,0.00,,,0.00,Rainwise IP-100,2013-03-11 04:11:00,
2013-03-11 00:16:00,36.0,33.0,30.37,SE,135,2.6,6.8,89,0.00,,,0.00,Rainwise IP-100,2013-03-11 04:16:00,
2013-03-11 00:21:00,36.1,33.0,30.37,SSE,157,2.1,6.1,89,0.00,,,0.00,Rainwise IP-100,2013-03-11 04:21:00,
2013-03-11 00:26:00,36.1,33.0,30.37,SSE,157,4.9,6.8,89,0.00,,,0.00,Rainwise IP-100,2013-03-11 04:26:00,
2013-03-11 00:31:00,36.1,33.0,30.37,SSE,157,2.8,7.5,89,0.00,,,0.00,Rainwise IP-100,2013-03-11 04:31:00,
2013-03-11 00:36:00,36.1,33.0,30.37,SE,135,2.3,4.2,89,0.00,,,0.00,Rainwise IP-100,2013-03-11 04:36:00,
2013-03-11 00:41:00,36.1,33.0,30.36,SE,135,2.1,8.9,89,0.00,,,0.00,Rainwise IP-100,2013-03-11 04:41:00,
2013-03-11 00:46:00,36.1,33.0,30.36,SSE,157,0.0,7.0,89,0.00,,,0.00,Rainwise IP-100,2013-03-11 04:46:00,
2013-03-11 00:51:00,36.1,33.0,30.36,SSW,202,1.9,6.8,89,0.00,,,0.00,Rainwise IP-100,2013-03-11 04:51:00,
2013-03-11 00:56:00,36.2,33.0,30.36,SSE,157,4.0,4.9,89,0.00,,,0.00,Rainwise IP-100,2013-03-11 04:56:00,
2013-03-11 01:01:00,36.2,33.0,30.36,SE,135,0.0,5.6,90,0.00,,,0.00,Rainwise IP-100,2013-03-11 05:01:00,
2013-03-11 01:06:00,36.2,33.0,30.37,SSW,202,1.2,4.2,90,0.00,,,0.00,Rainwise IP-100,2013-03-11 05:06:00,
2013-03-11 01:11:00,36.3,33.0,30.36,SE,135,0.0,6.5,90,0.00,,,0.00,Rainwise IP-100,2013-03-11 05:11:00,
2013-03-11 01:16:00,36.3,33.0,30.36,SSE,157,4.4,4.4,90,0.00,,,0.00,Rainwise IP-100,2013-03-11 05:16:00,
2013-03-11 01:21:00,36.4,33.0,30.36,SSE,157,2.1,4.7,90,0.00,,,0.00,Rainwise IP-100,2013-03-11 05:21:00,
2013-03-11 01:26:00,36.4,33.0,30.36,SSE,157,1.6,5.4,90,0.00,,,0.00,Rainwise IP-100,2013-03-11 05:26:00,
2013-03-11 01:31:00,36.3,33.0,30.36,SSE,157,1.2,4.7,90,0.00,,,0.00,Rainwise IP-100,2013-03-11 05:31:00,
2013-03-11 01:36:00,36.3,33.0,30.36,SSE,157,1.4,6.1,90,0.00,,,0.00,Rainwise IP-100,2013-03-11 05:36:00,
2013-03-11 01:42:00,36.4,33.0,30.36,SSW,202,3.5,4.9,90,0.00,,,0.00,Rainwise IP-100,2013-03-11 05:42:00,
2013-03-11 01:47:00,36.4,33.0,30.36,SSE,157,1.4,4.4,91,0.00,,,0.00,Rainwise IP-100,2013-03-11 05:47:00,
2013-03-11 01:52:00,36.5,35.0,30.36,South,180,1.4,4.4,91,0.00,,,0.00,Rainwise IP-100,2013-03-11 05:52:00,
2013-03-11 01:57:00,36.6,35.0,30.36,West,270,3.0,3.0,91,0.00,,,0.00,Rainwise IP-100,2013-03-11 05:57:00,
2013-03-11 02:02:00,36.8,35.0,30.37,West,270,1.2,3.0,91,0.00,,,0.00,Rainwise IP-100,2013-03-11 06:02:00,
2013-03-11 02:07:00,36.8,35.0,30.36,West,270,0.0,1.4,91,0.00,,,0.00,Rainwise IP-100,2013-03-11 06:07:00,
2013-03-11 02:12:00,36.7,35.0,30.36,South,180,3.3,3.3,91,0.00,,,0.00,Rainwise IP-100,2013-03-11 06:12:00,
2013-03-11 02:17:00,36.7,35.0,30.35,SSW,202,0.0,4.9,91,0.00,,,0.00,Rainwise IP-100,2013-03-11 06:17:00,
2013-03-11 02:22:00,36.7,35.0,30.36,SSE,157,2.1,4.9,91,0.00,,,0.00,Rainwise IP-100,2013-03-11 06:22:00,
2013-03-11 02:27:00,36.8,35.0,30.36,SSW,202,2.6,4.0,91,0.00,,,0.00,Rainwise IP-100,2013-03-11 06:27:00,
2013-03-11 02:32:00,36.9,35.0,30.36,West,270,1.2,6.8,91,0.00,,,0.00,Rainwise IP-100,2013-03-11 06:32:00,
2013-03-11 02:37:00,37.0,35.0,30.37,SSW,202,0.0,5.1,91,0.00,,,0.00,Rainwise IP-100,2013-03-11 06:37:00,
2013-03-11 02:42:00,37.1,35.0,30.37,WSW,247,2.3,3.5,91,0.00,,,0.00,Rainwise IP-100,2013-03-11 06:42:00,
2013-03-11 02:47:00,37.1,35.0,30.37,West,270,3.7,4.4,91,0.00,,,0.00,Rainwise IP-100,2013-03-11 06:47:00,
2013-03-11 02:52:00,37.0,35.0,30.37,West,270,3.0,5.1,91,0.00,,,0.00,Rainwise IP-100,2013-03-11 06:52:00,
2013-03-11 02:57:00,37.0,35.0,30.37,WNW,292,0.0,5.4,90,0.00,,,0.00,Rainwise IP-100,2013-03-11 06:57:00,
2013-03-11 03:02:00,37.0,35.0,30.36,WSW,247,2.6,3.7,90,0.00,,,0.00,Rainwise IP-100,2013-03-11 07:02:00,
2013-03-11 03:07:00,37.0,35.0,30.36,WSW,247,1.2,4.7,90,0.00,,,0.00,Rainwise IP-100,2013-03-11 07:07:00,
2013-03-11 03:12:00,37.0,35.0,30.36,WSW,247,3.3,6.8,90,0.00,,,0.00,Rainwise IP-100,2013-03-11 07:12:00,
2013-03-11 03:17:00,37.0,35.0,30.36,WSW,247,3.7,6.8,90,0.00,,,0.00,Rainwise IP-100,2013-03-11 07:17:00,
2013-03-11 03:22:00,37.0,35.0,30.36,WSW,247,3.7,4.7,90,0.00,,,0.00,Rainwise IP-100,2013-03-11 07:22:00,
2013-03-11 03:27:00,37.0,35.0,30.37,WSW,247,1.6,5.6,90,0.00,,,0.00,Rainwise IP-100,2013-03-11 07:27:00,
2013-03-11 03:32:00,36.9,35.0,30.36,WNW,292,1.6,5.8,90,0.00,,,0.00,Rainwise IP-100,2013-03-11 07:32:00,
2013-03-11 03:37:00,37.0,35.0,30.36,SW,225,2.8,8.2,90,0.00,,,0.00,Rainwise IP-100,2013-03-11 07:37:00,
2013-03-11 03:42:00,37.0,35.0,30.36,WSW,247,0.0,6.5,90,0.00,,,0.00,Rainwise IP-100,2013-03-11 07:42:00,
2013-03-11 03:47:00,37.0,35.0,30.36,West,270,0.0,2.6,90,0.00,,,0.00,Rainwise IP-100,2013-03-11 07:47:00,
2013-03-11 03:52:00,37.0,35.0,30.35,West,270,0.0,1.2,91,0.00,,,0.00,Rainwise IP-100,2013-03-11 07:52:00,
2013-03-11 03:57:00,36.9,35.0,30.34,SSE,157,0.0,3.5,91,0.00,,,0.00,Rainwise IP-100,2013-03-11 07:57:00,
2013-03-11 04:02:00,36.9,35.0,30.34,SSE,157,0.0,2.3,91,0.00,,,0.00,Rainwise IP-100,2013-03-11 08:02:00,
2013-03-11 04:07:00,37.0,35.0,30.34,SSW,202,0.0,4.0,91,0.00,,,0.00,Rainwise IP-100,2013-03-11 08:07:00,
2013-03-11 04:12:00,37.0,35.0,30.34,SSW,202,0.0,1.4,91,0.00,,,0.00,Rainwise IP-100,2013-03-11 08:12:00,
2013-03-11 04:17:00,37.0,35.0,30.33,SE,135,0.0,3.3,91,0.00,,,0.00,Rainwise IP-100,2013-03-11 08:17:00,
2013-03-11 04:22:00,37.0,35.0,30.33,SW,225,2.6,2.6,91,0.00,,,0.00,Rainwise IP-100,2013-03-11 08:22:00,
2013-03-11 04:27:00,36.9,35.0,30.33,WSW,247,1.9,4.0,91,0.00,,,0.00,Rainwise IP-100,2013-03-11 08:27:00,
2013-03-11 04:32:00,36.9,35.0,30.32,SW,225,0.0,4.0,91,0.00,,,0.00,Rainwise IP-100,2013-03-11 08:32:00,
2013-03-11 04:37:00,36.9,35.0,30.32,WNW,292,3.0,4.4,91,0.00,,,0.00,Rainwise IP-100,2013-03-11 08:37:00,
2013-03-11 04:42:00,36.9,35.0,30.33,WNW,292,1.2,4.4,91,0.00,,,0.00,Rainwise IP-100,2013-03-11 08:42:00,
2013-03-11 04:47:00,36.9,35.0,30.33,WSW,247,1.4,3.5,91,0.00,,,0.00,Rainwise IP-100,2013-03-11 08:47:00,
2013-03-11 04:52:00,36.8,35.0,30.33,WSW,247,0.0,1.9,91,0.00,,,0.00,Rainwise IP-100,2013-03-11 08:52:00,
2013-03-11 04:57:00,36.9,35.0,30.33,SW,225,0.0,5.1,91,0.00,,,0.00,Rainwise IP-100,2013-03-11 08:57:00,
2013-03-11 05:02:00,36.9,35.0,30.33,SSW,202,0.0,2.8,91,0.00,,,0.00,Rainwise IP-100,2013-03-11 09:02:00,
2013-03-11 05:08:00,36.9,35.0,30.32,WSW,247,1.6,4.9,91,0.00,,,0.00,Rainwise IP-100,2013-03-11 09:08:00,
2013-03-11 05:13:00,36.9,35.0,30.33,SSW,202,0.0,3.7,91,0.00,,,0.00,Rainwise IP-100,2013-03-11 09:13:00,
2013-03-11 05:18:00,36.9,35.0,30.33,South,180,0.0,3.5,91,0.00,,,0.00,Rainwise IP-100,2013-03-11 09:18:00,
2013-03-11 05:23:00,36.9,35.0,30.33,SW,225,1.4,2.3,91,0.00,,,0.00,Rainwise IP-100,2013-03-11 09:23:00,
2013-03-11 05:28:00,37.0,35.0,30.33,WNW,292,4.9,4.9,91,0.00,,,0.00,Rainwise IP-100,2013-03-11 09:28:00,
2013-03-11 05:33:00,37.0,35.0,30.33,SW,225,2.1,5.4,92,0.00,,,0.00,Rainwise IP-100,2013-03-11 09:33:00,
2013-03-11 05:38:00,37.0,35.0,30.34,WSW,247,1.6,6.8,92,0.00,,,0.00,Rainwise IP-100,2013-03-11 09:38:00,
2013-03-11 05:43:00,37.0,35.0,30.34,WSW,247,2.3,5.4,92,0.00,,,0.00,Rainwise IP-100,2013-03-11 09:43:00,
2013-03-11 05:48:00,37.0,35.0,30.34,WSW,247,0.0,5.6,92,0.00,,,0.00,Rainwise IP-100,2013-03-11 09:48:00,
2013-03-11 05:53:00,37.0,35.0,30.33,SSW,202,4.2,6.3,92,0.00,,,0.00,Rainwise IP-100,2013-03-11 09:53:00,
2013-03-11 05:58:00,37.0,35.0,30.33,South,180,2.6,6.3,91,0.00,,,0.00,Rainwise IP-100,2013-03-11 09:58:00,
2013-03-11 06:03:00,36.9,35.0,30.34,SW,225,1.9,7.7,91,0.00,,,0.00,Rainwise IP-100,2013-03-11 10:03:00,
2013-03-11 06:08:00,36.9,35.0,30.34,West,270,3.3,3.5,92,0.00,,,0.00,Rainwise IP-100,2013-03-11 10:08:00,
2013-03-11 06:13:00,37.0,35.0,30.34,SSW,202,1.4,6.1,92,0.00,,,0.00,Rainwise IP-100,2013-03-11 10:13:00,
2013-03-11 06:18:00,37.0,35.0,30.34,SW,225,0.0,4.0,92,0.00,,,0.00,Rainwise IP-100,2013-03-11 10:18:00,
2013-03-11 06:23:00,37.0,35.0,30.34,WSW,247,0.0,2.3,92,0.00,,,0.00,Rainwise IP-100,2013-03-11 10:23:00,
2013-03-11 06:28:00,36.9,35.0,30.34,WNW,292,0.0,5.6,92,0.00,,,0.00,Rainwise IP-100,2013-03-11 10:28:00,
2013-03-11 06:33:00,36.9,35.0,30.34,WSW,247,0.0,4.9,92,0.00,,,0.00,Rainwise IP-100,2013-03-11 10:33:00,
2013-03-11 06:38:00,36.9,35.0,30.34,SW,225,0.0,4.9,92,0.00,,,0.00,Rainwise IP-100,2013-03-11 10:38:00,
2013-03-11 06:43:00,36.8,35.0,30.33,SE,135,0.0,3.5,92,0.00,,,0.00,Rainwise IP-100,2013-03-11 10:43:00,
2013-03-11 06:48:00,36.8,35.0,30.33,WSW,247,2.3,4.4,92,0.00,,,0.00,Rainwise IP-100,2013-03-11 10:48:00,
2013-03-11 06:53:00,36.7,35.0,30.33,WSW,247,0.0,2.6,92,0.00,,,0.00,Rainwise IP-100,2013-03-11 10:53:00,
2013-03-11 06:58:00,36.7,35.0,30.33,SW,225,4.0,5.6,92,0.00,,,0.00,Rainwise IP-100,2013-03-11 10:58:00,
2013-03-11 07:03:00,36.7,35.0,30.34,SW,225,2.6,4.7,92,0.00,,,0.00,Rainwise IP-100,2013-03-11 11:03:00,
2013-03-11 07:08:00,36.8,35.0,30.34,SSW,202,1.2,3.0,92,0.00,,,0.00,Rainwise IP-100,2013-03-11 11:08:00,
2013-03-11 07:13:00,36.9,35.0,30.34,SSW,202,1.9,4.9,92,0.00,,,0.00,Rainwise IP-100,2013-03-11 11:13:00,
2013-03-11 07:18:00,37.0,35.0,30.34,SW,225,3.3,3.7,92,0.00,,,0.00,Rainwise IP-100,2013-03-11 11:18:00,
2013-03-11 07:23:00,37.0,35.0,30.34,SW,225,3.5,3.7,92,0.00,,,0.00,Rainwise IP-100,2013-03-11 11:23:00,
2013-03-11 07:28:00,37.0,35.0,30.34,WNW,292,2.1,4.4,92,0.00,,,0.00,Rainwise IP-100,2013-03-11 11:28:00,
2013-03-11 07:33:00,37.1,35.0,30.35,WSW,247,1.6,4.7,92,0.00,,,0.00,Rainwise IP-100,2013-03-11 11:33:00,
2013-03-11 07:38:00,37.2,35.0,30.35,WNW,292,1.2,6.3,92,0.00,,,0.00,Rainwise IP-100,2013-03-11 11:38:00,
2013-03-11 07:43:00,37.3,35.0,30.35,WSW,247,1.9,6.5,92,0.00,,,0.00,Rainwise IP-100,2013-03-11 11:43:00,
2013-03-11 07:48:00,37.4,35.0,30.35,WNW,292,3.5,5.8,92,0.00,,,0.00,Rainwise IP-100,2013-03-11 11:48:00,
2013-03-11 07:53:00,37.4,35.0,30.36,WSW,247,5.6,8.6,92,0.00,,,0.00,Rainwise IP-100,2013-03-11 11:53:00,
2013-03-11 07:58:00,37.4,35.0,30.35,SSE,157,2.6,7.0,91,0.00,,,0.00,Rainwise IP-100,2013-03-11 11:58:00,
2013-03-11 08:03:00,37.5,36.0,30.35,SSW,202,0.0,4.4,91,0.00,,,0.00,Rainwise IP-100,2013-03-11 12:03:00,
2013-03-11 08:08:00,37.7,36.0,30.35,WSW,247,0.0,5.1,91,0.00,,,0.00,Rainwise IP-100,2013-03-11 12:08:00,
2013-03-11 08:13:00,37.9,36.0,30.35,SSW,202,0.0,3.7,91,0.00,,,0.00,Rainwise IP-100,2013-03-11 12:13:00,
2013-03-11 08:18:00,38.0,36.0,30.34,WSW,247,3.7,6.8,91,0.00,,,0.00,Rainwise IP-100,2013-03-11 12:18:00,
2013-03-11 08:23:00,38.0,36.0,30.34,SW,225,0.0,7.5,91,0.00,,,0.00,Rainwise IP-100,2013-03-11 12:23:00,
2013-03-11 08:28:00,38.1,36.0,30.34,SSW,202,1.6,6.5,91,0.00,,,0.00,Rainwise IP-100,2013-03-11 12:28:00,
2013-03-11 08:33:00,38.3,36.0,30.33,SSE,157,0.0,5.4,91,0.00,,,0.00,Rainwise IP-100,2013-03-11 12:33:00,
2013-03-11 08:38:00,38.4,36.0,30.33,SSW,202,1.2,5.4,91,0.00,,,0.00,Rainwise IP-100,2013-03-11 12:38:00,
2013-03-11 08:43:00,38.6,37.0,30.34,West,270,2.8,4.2,90,0.00,,,0.00,Rainwise IP-100,2013-03-11 12:43:00,
2013-03-11 08:48:00,38.6,37.0,30.34,WNW,292,0.0,5.6,90,0.00,,,0.00,Rainwise IP-100,2013-03-11 12:48:00,
2013-03-11 08:53:00,38.6,37.0,30.35,West,270,0.0,6.8,90,0.00,,,0.00,Rainwise IP-100,2013-03-11 12:53:00,
2013-03-11 08:58:00,38.9,37.0,30.35,SSW,202,1.9,3.5,90,0.00,,,0.00,Rainwise IP-100,2013-03-11 12:58:00,
2013-03-11 09:03:00,39.1,37.0,30.34,SSW,202,2.1,3.7,90,0.00,,,0.00,Rainwise IP-100,2013-03-11 13:03:00,
2013-03-11 09:08:00,39.2,36.0,30.34,SSE,157,3.0,3.5,89,0.00,,,0.00,Rainwise IP-100,2013-03-11 13:08:00,
2013-03-11 09:13:00,39.2,36.0,30.34,East,90,1.2,5.1,89,0.00,,,0.00,Rainwise IP-100,2013-03-11 13:13:00,
2013-03-11 09:18:00,39.4,36.0,30.33,SSE,157,4.7,5.8,89,0.00,,,0.00,Rainwise IP-100,2013-03-11 13:18:00,
2013-03-11 09:23:00,39.6,37.0,30.33,SSW,202,5.4,6.1,89,0.00,,,0.00,Rainwise IP-100,2013-03-11 13:23:00,
2013-03-11 09:28:00,39.7,37.0,30.33,ESE,112,4.7,6.1,88,0.00,,,0.00,Rainwise IP-100,2013-03-11 13:28:00,
2013-03-11 09:33:00,39.7,37.0,30.33,SSW,202,6.1,8.2,88,0.00,,,0.00,Rainwise IP-100,2013-03-11 13:33:00,
2013-03-11 09:38:00,39.8,37.0,30.33,SE,135,3.5,6.1,88,0.00,,,0.00,Rainwise IP-100,2013-03-11 13:38:00,
2013-03-11 09:43:00,40.0,37.0,30.33,SSW,202,3.0,9.6,88,0.00,,,0.00,Rainwise IP-100,2013-03-11 13:43:00,
2013-03-11 09:48:00,40.1,37.0,30.33,South,180,4.9,6.8,88,0.00,,,0.00,Rainwise IP-100,2013-03-11 13:48:00,
2013-03-11 09:53:00,40.3,37.0,30.33,SSE,157,4.2,7.7,88,0.00,,,0.00,Rainwise IP-100,2013-03-11 13:53:00,
2013-03-11 09:58:00,40.2,37.0,30.33,South,180,7.0,7.0,88,0.00,,,0.00,Rainwise IP-100,2013-03-11 13:58:00,
2013-03-11 10:03:00,39.9,37.0,30.33,SSE,157,8.9,10.0,88,0.00,,,0.00,Rainwise IP-100,2013-03-11 14:03:00,
2013-03-11 10:08:00,39.9,37.0,30.33,SSE,157,0.0,9.3,88,0.00,,,0.00,Rainwise IP-100,2013-03-11 14:08:00,
2013-03-11 10:13:00,40.1,37.0,30.34,SSE,157,4.2,9.3,88,0.00,,,0.00,Rainwise IP-100,2013-03-11 14:13:00,
2013-03-11 10:18:00,40.4,37.0,30.34,SSW,202,1.2,6.5,88,0.00,,,0.00,Rainwise IP-100,2013-03-11 14:18:00,
2013-03-11 10:23:00,40.6,38.0,30.34,SSE,157,0.0,6.5,88,0.00,,,0.00,Rainwise IP-100,2013-03-11 14:23:00,
2013-03-11 10:28:00,40.8,38.0,30.33,SSE,157,5.6,9.8,88,0.00,,,0.00,Rainwise IP-100,2013-03-11 14:28:00,
2013-03-11 10:34:00,40.8,38.0,30.33,SSE,157,7.9,9.1,88,0.00,,,0.00,Rainwise IP-100,2013-03-11 14:34:00,
2013-03-11 10:39:00,40.9,38.0,30.34,SE,135,0.0,8.6,88,0.00,,,0.00,Rainwise IP-100,2013-03-11 14:39:00,
2013-03-11 10:44:00,41.0,38.0,30.34,South,180,1.4,5.8,88,0.00,,,0.00,Rainwise IP-100,2013-03-11 14:44:00,
2013-03-11 10:49:00,41.2,38.0,30.34,SSW,202,1.6,6.1,87,0.00,,,0.00,Rainwise IP-100,2013-03-11 14:49:00,
2013-03-11 10:54:00,41.4,38.0,30.35,WSW,247,1.6,6.1,87,0.00,,,0.00,Rainwise IP-100,2013-03-11 14:54:00,
2013-03-11 10:59:00,41.6,38.0,30.35,SSE,157,0.0,7.7,86,0.00,,,0.00,Rainwise IP-100,2013-03-11 14:59:00,
2013-03-11 11:04:00,41.8,38.0,30.35,SSW,202,4.2,6.8,86,0.00,,,0.00,Rainwise IP-100,2013-03-11 15:04:00,
2013-03-11 11:09:00,41.6,38.0,30.34,South,180,5.6,8.2,86,0.00,,,0.00,Rainwise IP-100,2013-03-11 15:09:00,
2013-03-11 11:14:00,41.5,38.0,30.34,SSE,157,5.4,8.2,86,0.00,,,0.00,Rainwise IP-100,2013-03-11 15:14:00,
2013-03-11 11:19:00,41.6,38.0,30.34,SSE,157,0.0,6.8,86,0.00,,,0.00,Rainwise IP-100,2013-03-11 15:19:00,
2013-03-11 11:24:00,41.9,38.0,30.35,SSW,202,1.9,5.6,86,0.00,,,0.00,Rainwise IP-100,2013-03-11 15:24:00,
2013-03-11 11:29:00,42.2,38.0,30.34,SSE,157,5.4,5.4,86,0.00,,,0.00,Rainwise IP-100,2013-03-11 15:29:00,
2013-03-11 11:34:00,42.6,39.0,30.34,SSE,157,2.8,7.5,86,0.00,,,0.00,Rainwise IP-100,2013-03-11 15:34:00,
2013-03-11 11:39:00,42.7,39.0,30.34,South,180,2.8,6.8,86,0.00,,,0.00,Rainwise IP-100,2013-03-11 15:39:00,
2013-03-11 11:44:00,42.7,39.0,30.34,SSE,157,2.6,6.5,86,0.00,,,0.00,Rainwise IP-100,2013-03-11 15:44:00,
2013-03-11 11:49:00,42.9,39.0,30.34,WSW,247,6.1,7.5,86,0.00,,,0.00,Rainwise IP-100,2013-03-11 15:49:00,
2013-03-11 11:54:00,43.0,39.0,30.34,SSW,202,1.6,9.3,86,0.00,,,0.00,Rainwise IP-100,2013-03-11 15:54:00,
2013-03-11 11:59:00,43.2,39.0,30.34,WSW,247,2.1,5.6,85,0.00,,,0.00,Rainwise IP-100,2013-03-11 15:59:00,
2013-03-11 12:04:00,43.5,40.0,30.34,SW,225,3.5,6.8,85,0.00,,,0.00,Rainwise IP-100,2013-03-11 16:04:00,
2013-03-11 12:09:00,43.6,39.0,30.35,SSE,157,3.7,7.5,84,0.00,,,0.00,Rainwise IP-100,2013-03-11 16:09:00,
2013-03-11 12:14:00,43.4,39.0,30.34,SSW,202,1.4,6.5,84,0.00,,,0.00,Rainwise IP-100,2013-03-11 16:14:00,
2013-03-11 12:19:00,43.4,39.0,30.34,SSW,202,0.0,7.5,85,0.00,,,0.00,Rainwise IP-100,2013-03-11 16:19:00,
2013-03-11 12:24:00,43.4,39.0,30.34,SSE,157,0.0,7.5,85,0.00,,,0.00,Rainwise IP-100,2013-03-11 16:24:00,
2013-03-11 12:29:00,43.5,40.0,30.34,SSW,202,1.2,7.2,85,0.00,,,0.00,Rainwise IP-100,2013-03-11 16:29:00,
2013-03-11 12:34:00,43.6,40.0,30.34,SSE,157,2.6,7.0,85,0.00,,,0.00,Rainwise IP-100,2013-03-11 16:34:00,
2013-03-11 12:39:00,43.7,40.0,30.33,SE,135,5.4,8.2,85,0.00,,,0.00,Rainwise IP-100,2013-03-11 16:39:00,
2013-03-11 12:44:00,43.8,40.0,30.33,SSE,157,6.8,9.1,85,0.00,,,0.00,Rainwise IP-100,2013-03-11 16:44:00,
2013-03-11 12:49:00,44.2,39.0,30.33,WSW,247,5.1,10.0,84,0.00,,,0.00,Rainwise IP-100,2013-03-11 16:49:00,
2013-03-11 12:54:00,44.5,40.0,30.32,SSE,157,3.0,8.4,84,0.00,,,0.00,Rainwise IP-100,2013-03-11 16:54:00,
2013-03-11 12:59:00,45.0,40.0,30.32,SSE,157,0.0,9.8,83,0.00,,,0.00,Rainwise IP-100,2013-03-11 16:59:00,
2013-03-11 13:04:00,45.6,41.0,30.32,SSW,202,6.5,9.1,83,0.00,,,0.00,Rainwise IP-100,2013-03-11 17:04:00,
2013-03-11 13:09:00,45.8,40.0,30.32,SSE,157,4.2,10.0,82,0.00,,,0.00,Rainwise IP-100,2013-03-11 17:09:00,
2013-03-11 13:14:00,45.9,40.0,30.32,South,180,2.8,8.4,82,0.00,,,0.00,Rainwise IP-100,2013-03-11 17:14:00,
2013-03-11 13:19:00,46.1,40.0,30.32,SSW,202,4.9,7.9,81,0.00,,,0.00,Rainwise IP-100,2013-03-11 17:19:00,
2013-03-11 13:24:00,46.2,40.0,30.32,SSE,157,3.5,8.2,81,0.00,,,0.00,Rainwise IP-100,2013-03-11 17:24:00,
2013-03-11 13:29:00,46.2,40.0,30.33,SSW,202,7.2,8.6,81,0.00,,,0.00,Rainwise IP-100,2013-03-11 17:29:00,
2013-03-11 13:34:00,46.0,40.0,30.33,South,180,2.3,9.3,81,0.00,,,0.00,Rainwise IP-100,2013-03-11 17:34:00,
2013-03-11 13:39:00,45.9,40.0,30.33,SE,135,3.3,7.2,81,0.00,,,0.00,Rainwise IP-100,2013-03-11 17:39:00,
2013-03-11 13:44:00,46.0,40.0,30.33,South,180,0.0,8.6,81,0.00,,,0.00,Rainwise IP-100,2013-03-11 17:44:00,
2013-03-11 13:49:00,46.0,40.0,30.33,SSE,157,5.1,8.4,81,0.00,,,0.00,Rainwise IP-100,2013-03-11 17:49:00,
2013-03-11 13:54:00,45.7,40.0,30.33,SSE,157,2.6,7.2,81,0.00,,,0.00,Rainwise IP-100,2013-03-11 17:54:00,
2013-03-11 13:59:00,45.4,40.0,30.33,SSE,157,5.4,8.9,82,0.00,,,0.00,Rainwise IP-100,2013-03-11 17:59:00,
2013-03-11 14:04:00,45.1,40.0,30.32,SSW,202,1.4,8.6,82,0.00,,,0.00,Rainwise IP-100,2013-03-11 18:04:00,
2013-03-11 14:09:00,45.0,40.0,30.32,SSE,157,6.1,7.9,82,0.00,,,0.00,Rainwise IP-100,2013-03-11 18:09:00,
2013-03-11 14:14:00,45.3,40.0,30.32,SSE,157,7.9,8.2,83,0.00,,,0.00,Rainwise IP-100,2013-03-11 18:14:00,
2013-03-11 14:19:00,45.7,40.0,30.31,South,180,2.8,10.5,82,0.00,,,0.00,Rainwise IP-100,2013-03-11 18:19:00,
2013-03-11 14:24:00,45.9,40.0,30.31,SSE,157,7.2,8.2,82,0.00,,,0.00,Rainwise IP-100,2013-03-11 18:24:00,
2013-03-11 14:29:00,46.0,40.0,30.30,SE,135,4.7,13.3,82,0.00,,,0.00,Rainwise IP-100,2013-03-11 18:29:00,
2013-03-11 14:34:00,45.9,40.0,30.30,South,180,3.7,11.9,82,0.00,,,0.00,Rainwise IP-100,2013-03-11 18:34:00,
2013-03-11 14:39:00,45.7,40.0,30.30,SSW,202,4.4,9.6,82,0.00,,,0.00,Rainwise IP-100,2013-03-11 18:39:00,
2013-03-11 14:44:00,45.6,40.0,30.30,SSE,157,2.3,10.7,82,0.00,,,0.00,Rainwise IP-100,2013-03-11 18:44:00,
2013-03-11 14:49:00,46.1,40.0,30.29,SE,135,5.4,8.4,82,0.00,,,0.00,Rainwise IP-100,2013-03-11 18:49:00,
2013-03-11 14:54:00,46.2,40.0,30.30,SE,135,7.2,10.7,82,0.00,,,0.00,Rainwise IP-100,2013-03-11 18:54:00,
2013-03-11 14:59:00,45.9,40.0,30.29,SSE,157,2.6,10.0,82,0.00,,,0.00,Rainwise IP-100,2013-03-11 18:59:00,
2013-03-11 15:04:00,45.1,40.0,30.29,SE,135,5.4,10.7,82,0.00,,,0.00,Rainwise IP-100,2013-03-11 19:04:00,
2013-03-11 15:09:00,44.1,39.0,30.29,South,180,8.4,12.1,84,0.00,,,0.00,Rainwise IP-100,2013-03-11 19:09:00,
2013-03-11 15:14:00,43.8,40.0,30.29,SSE,157,6.5,11.4,85,0.00,,,0.00,Rainwise IP-100,2013-03-11 19:14:00,
2013-03-11 15:19:00,43.7,40.0,30.29,ESE,112,4.9,11.0,86,0.00,,,0.00,Rainwise IP-100,2013-03-11 19:19:00,
2013-03-11 15:24:00,43.8,40.0,30.30,SE,135,4.0,8.4,86,0.00,,,0.00,Rainwise IP-100,2013-03-11 19:24:00,
2013-03-11 15:29:00,44.0,40.0,30.30,South,180,4.0,10.0,86,0.00,,,0.00,Rainwise IP-100,2013-03-11 19:29:00,
2013-03-11 15:34:00,44.3,40.0,30.30,SSE,157,1.6,10.0,86,0.00,,,0.00,Rainwise IP-100,2013-03-11 19:34:00,
2013-03-11 15:39:00,44.9,41.0,30.30,SSE,157,4.0,7.2,85,0.00,,,0.00,Rainwise IP-100,2013-03-11 19:39:00,
2013-03-11 15:44:00,45.2,41.0,30.30,SSE,157,7.2,8.6,85,0.00,,,0.00,Rainwise IP-100,2013-03-11 19:44:00,
2013-03-11 15:49:00,45.1,41.0,30.30,SSE,157,5.8,7.2,85,0.00,,,0.00,Rainwise IP-100,2013-03-11 19:49:00,
2013-03-11 15:54:00,44.8,41.0,30.29,SSE,157,4.7,10.3,85,0.00,,,0.00,Rainwise IP-100,2013-03-11 19:54:00,
2013-03-11 15:59:00,44.6,41.0,30.29,SSE,157,7.2,15.6,85,0.00,,,0.00,Rainwise IP-100,2013-03-11 19:59:00,
2013-03-11 16:04:00,44.6,41.0,30.29,South,180,7.0,9.8,85,0.00,,,0.00,Rainwise IP-100,2013-03-11 20:04:00,
2013-03-11 16:09:00,44.4,40.0,30.29,SSE,157,7.0,12.1,86,0.00,,,0.00,Rainwise IP-100,2013-03-11 20:09:00,
2013-03-11 16:14:00,44.0,40.0,30.29,SSE,157,4.0,9.3,86,0.00,,,0.00,Rainwise IP-100,2013-03-11 20:14:00,
2013-03-11 16:19:00,43.8,40.0,30.28,South,180,1.2,8.2,86,0.00,,,0.00,Rainwise IP-100,2013-03-11 20:19:00,
2013-03-11 16:24:00,44.0,40.0,30.28,SE,135,1.9,7.7,86,0.00,,,0.00,Rainwise IP-100,2013-03-11 20:24:00,
2013-03-11 16:29:00,44.1,40.0,30.28,ESE,112,2.6,8.2,86,0.00,,,0.00,Rainwise IP-100,2013-03-11 20:29:00,
2013-03-11 16:34:00,44.0,40.0,30.28,SSE,157,3.3,11.4,86,0.00,,,0.00,Rainwise IP-100,2013-03-11 20:34:00,
2013-03-11 16:39:00,43.8,40.0,30.28,SSE,157,2.8,7.5,86,0.00,,,0.00,Rainwise IP-100,2013-03-11 20:39:00,
2013-03-11 16:44:00,43.7,40.0,30.28,SSE,157,1.2,6.8,87,0.00,,,0.00,Rainwise IP-100,2013-03-11 20:44:00,
2013-03-11 16:49:00,43.5,40.0,30.28,SW,225,6.1,8.9,87,0.00,,,0.00,Rainwise IP-100,2013-03-11 20:49:00,
2013-03-11 16:54:00,43.3,39.0,30.28,South,180,4.4,8.6,87,0.00,,,0.00,Rainwise IP-100,2013-03-11 20:54:00,
2013-03-11 16:59:00,43.1,40.0,30.28,SSW,202,4.9,8.4,88,0.00,,,0.00,Rainwise IP-100,2013-03-11 20:59:00,
2013-03-11 17:04:00,42.9,40.0,30.28,SSE,157,3.7,8.9,88,0.00,,,0.00,Rainwise IP-100,2013-03-11 21:04:00,
2013-03-11 17:09:00,42.8,40.0,30.28,South,180,3.3,8.2,88,0.00,,,0.00,Rainwise IP-100,2013-03-11 21:09:00,
2013-03-11 17:14:00,42.6,40.0,30.28,South,180,9.1,9.1,89,0.00,,,0.00,Rainwise IP-100,2013-03-11 21:14:00,
2013-03-11 17:19:00,42.4,39.0,30.28,SW,225,2.8,10.5,89,0.00,,,0.00,Rainwise IP-100,2013-03-11 21:19:00,
2013-03-11 17:24:00,42.2,39.0,30.28,ESE,112,0.0,6.1,90,0.00,,,0.00,Rainwise IP-100,2013-03-11 21:24:00,
2013-03-11 17:29:00,42.0,39.0,30.28,SSE,157,2.6,6.8,90,0.00,,,0.00,Rainwise IP-100,2013-03-11 21:29:00,
2013-03-11 17:34:00,41.9,39.0,30.28,SSW,202,3.7,10.3,90,0.00,,,0.00,Rainwise IP-100,2013-03-11 21:34:00,
2013-03-11 17:39:00,41.9,40.0,30.28,SSE,157,3.3,10.3,91,0.00,,,0.00,Rainwise IP-100,2013-03-11 21:39:00,
2013-03-11 17:44:00,41.7,40.0,30.28,SE,135,4.0,8.2,91,0.00,,,0.00,Rainwise IP-100,2013-03-11 21:44:00,
2013-03-11 17:49:00,41.7,40.0,30.28,SSE,157,5.1,7.5,91,0.00,,,0.00,Rainwise IP-100,2013-03-11 21:49:00,
2013-03-11 17:54:00,41.6,40.0,30.28,SSE,157,3.3,7.7,92,0.00,,,0.00,Rainwise IP-100,2013-03-11 21:54:00,
2013-03-11 17:59:00,41.5,40.0,30.28,SSE,157,6.1,10.0,92,0.00,,,0.00,Rainwise IP-100,2013-03-11 21:59:00,
2013-03-11 18:04:00,41.4,39.0,30.28,SSE,157,4.0,6.5,92,0.00,,,0.00,Rainwise IP-100,2013-03-11 22:04:00,
2013-03-11 18:09:00,41.3,39.0,30.28,South,180,6.3,6.3,92,0.00,,,0.00,Rainwise IP-100,2013-03-11 22:09:00,
2013-03-11 18:14:00,41.2,39.0,30.28,SSW,202,1.9,6.3,93,0.00,,,0.00,Rainwise IP-100,2013-03-11 22:14:00,
2013-03-11 18:19:00,41.1,39.0,30.27,SSE,157,2.8,7.7,93,0.00,,,0.00,Rainwise IP-100,2013-03-11 22:19:00,
2013-03-11 18:24:00,40.9,39.0,30.28,SW,225,3.0,4.2,93,0.00,,,0.00,Rainwise IP-100,2013-03-11 22:24:00,
2013-03-11 18:29:00,40.8,39.0,30.28,SSW,202,2.8,5.4,93,0.00,,,0.00,Rainwise IP-100,2013-03-11 22:29:00,
2013-03-11 18:34:00,40.7,39.0,30.27,SSE,157,0.0,4.7,94,0.00,,,0.00,Rainwise IP-100,2013-03-11 22:34:00,
2013-03-11 18:39:00,40.7,39.0,30.27,SSE,157,1.2,5.6,94,0.00,,,0.00,Rainwise IP-100,2013-03-11 22:39:00,
2013-03-11 18:44:00,40.7,39.0,30.27,SSE,157,4.4,4.4,94,0.00,,,0.00,Rainwise IP-100,2013-03-11 22:44:00,
2013-03-11 18:49:00,40.6,39.0,30.27,SSW,202,4.7,6.1,94,0.00,,,0.00,Rainwise IP-100,2013-03-11 22:49:00,
2013-03-11 18:54:00,40.5,40.0,30.27,SSE,157,1.4,7.5,95,0.00,,,0.00,Rainwise IP-100,2013-03-11 22:54:00,
2013-03-11 18:59:00,40.4,39.0,30.26,East,90,0.0,5.6,95,0.00,,,0.00,Rainwise IP-100,2013-03-11 22:59:00,
2013-03-11 19:04:00,40.4,39.0,30.27,SSE,157,3.0,5.6,95,0.00,,,0.00,Rainwise IP-100,2013-03-11 23:04:00,
2013-03-11 19:09:00,40.4,39.0,30.26,South,180,4.0,7.9,95,0.00,,,0.00,Rainwise IP-100,2013-03-11 23:09:00,
2013-03-11 19:14:00,40.3,39.0,30.26,ESE,112,1.6,6.3,95,0.00,,,0.00,Rainwise IP-100,2013-03-11 23:14:00,
2013-03-11 19:20:00,40.4,39.0,30.26,SE,135,1.4,6.3,95,0.00,,,0.00,Rainwise IP-100,2013-03-11 23:20:00,
2013-03-11 19:25:00,40.4,39.0,30.26,SSW,202,1.2,6.5,96,0.00,,,0.00,Rainwise IP-100,2013-03-11 23:25:00,
2013-03-11 19:30:00,40.4,39.0,30.26,SE,135,0.0,6.5,96,0.00,,,0.00,Rainwise IP-100,2013-03-11 23:30:00,
2013-03-11 19:35:00,40.5,40.0,30.26,South,180,5.4,6.3,96,0.00,,,0.00,Rainwise IP-100,2013-03-11 23:35:00,
2013-03-11 19:40:00,40.6,40.0,30.26,SSE,157,1.2,5.4,96,0.00,,,0.00,Rainwise IP-100,2013-03-11 23:40:00,
2013-03-11 19:45:00,40.8,40.0,30.27,SSE,157,1.4,6.5,96,0.00,,,0.00,Rainwise IP-100,2013-03-11 23:45:00,
2013-03-11 19:50:00,40.8,40.0,30.26,South,180,2.6,6.8,96,0.00,,,0.00,Rainwise IP-100,2013-03-11 23:50:00,
2013-03-11 19:55:00,40.9,40.0,30.26,SSW,202,1.2,6.8,96,0.00,,,0.00,Rainwise IP-100,2013-03-11 23:55:00,
2013-03-11 20:00:00,40.9,40.0,30.26,SSE,157,1.9,6.5,96,0.00,,,0.00,Rainwise IP-100,2013-03-12 00:00:00,
2013-03-11 20:05:00,40.9,40.0,30.26,SSW,202,2.1,5.8,96,0.00,,,0.00,Rainwise IP-100,2013-03-12 00:05:00,
2013-03-11 20:10:00,40.9,40.0,30.26,SSE,157,0.0,5.1,96,0.00,,,0.00,Rainwise IP-100,2013-03-12 00:10:00,
2013-03-11 20:15:00,40.9,40.0,30.26,SSW,202,2.6,5.8,96,0.00,,,0.00,Rainwise IP-100,2013-03-12 00:15:00,
2013-03-11 20:20:00,41.0,40.0,30.26,WSW,247,2.1,4.2,96,0.00,,,0.00,Rainwise IP-100,2013-03-12 00:20:00,
2013-03-11 20:25:00,41.0,40.0,30.27,SSW,202,5.4,7.7,97,0.00,,,0.00,Rainwise IP-100,2013-03-12 00:25:00,
2013-03-11 20:30:00,41.0,40.0,30.27,SSW,202,1.6,7.2,97,0.00,,,0.00,Rainwise IP-100,2013-03-12 00:30:00,
2013-03-11 20:35:00,41.0,40.0,30.27,SSW,202,0.0,4.7,96,0.00,,,0.00,Rainwise IP-100,2013-03-12 00:35:00,
2013-03-11 20:40:00,41.0,40.0,30.26,SSE,157,1.9,4.7,96,0.00,,,0.00,Rainwise IP-100,2013-03-12 00:40:00,
2013-03-11 20:45:00,41.0,40.0,30.26,South,180,3.7,4.7,97,0.00,,,0.00,Rainwise IP-100,2013-03-12 00:45:00,
2013-03-11 20:50:00,41.0,40.0,30.26,SE,135,2.6,4.2,97,0.00,,,0.00,Rainwise IP-100,2013-03-12 00:50:00,
2013-03-11 20:55:00,41.0,40.0,30.26,South,180,1.6,3.7,97,0.00,,,0.00,Rainwise IP-100,2013-03-12 00:55:00,
2013-03-11 21:00:00,41.0,40.0,30.26,ESE,112,4.0,4.4,97,0.00,,,0.00,Rainwise IP-100,2013-03-12 01:00:00,
2013-03-11 21:05:00,41.0,40.0,30.25,SSE,157,3.7,7.0,97,0.00,,,0.00,Rainwise IP-100,2013-03-12 01:05:00,
2013-03-11 21:10:00,41.0,40.0,30.26,ESE,112,2.8,7.7,97,0.00,,,0.00,Rainwise IP-100,2013-03-12 01:10:00,
2013-03-11 21:15:00,41.0,40.0,30.25,SSE,157,2.1,8.2,97,0.00,,,0.00,Rainwise IP-100,2013-03-12 01:15:00,
2013-03-11 21:20:00,41.0,40.0,30.25,ESE,112,2.3,7.0,97,0.00,,,0.00,Rainwise IP-100,2013-03-12 01:20:00,
2013-03-11 21:25:00,41.1,40.0,30.25,SSE,157,4.0,10.5,97,0.00,,,0.00,Rainwise IP-100,2013-03-12 01:25:00,
2013-03-11 21:30:00,41.2,40.0,30.25,SSE,157,3.0,7.9,97,0.00,,,0.00,Rainwise IP-100,2013-03-12 01:30:00,
2013-03-11 21:35:00,41.3,40.0,30.25,South,180,2.6,9.6,97,0.00,,,0.00,Rainwise IP-100,2013-03-12 01:35:00,
2013-03-11 21:40:00,41.4,40.0,30.26,SSE,157,5.1,11.4,97,0.00,,,0.00,Rainwise IP-100,2013-03-12 01:40:00,
2013-03-11 21:45:00,41.5,41.0,30.26,South,180,5.6,8.6,97,0.00,,,0.00,Rainwise IP-100,2013-03-12 01:45:00,
2013-03-11 21:50:00,41.6,41.0,30.25,SE,135,6.1,11.7,97,0.00,,,0.00,Rainwise IP-100,2013-03-12 01:50:00,
2013-03-11 21:55:00,41.6,41.0,30.25,SSE,157,1.9,10.3,97,0.00,,,0.00,Rainwise IP-100,2013-03-12 01:55:00,
2013-03-11 22:00:00,41.7,41.0,30.25,SSE,157,2.8,8.6,97,0.00,,,0.00,Rainwise IP-100,2013-03-12 02:00:00,
2013-03-11 22:05:00,41.8,41.0,30.25,SSE,157,4.7,11.0,97,0.00,,,0.00,Rainwise IP-100,2013-03-12 02:05:00,
2013-03-11 22:10:00,41.9,41.0,30.25,SSE,157,4.4,7.5,97,0.00,,,0.00,Rainwise IP-100,2013-03-12 02:10:00,
2013-03-11 22:15:00,41.9,41.0,30.24,SSE,157,4.4,6.5,97,0.00,,,0.00,Rainwise IP-100,2013-03-12 02:15:00,
2013-03-11 22:20:00,41.9,41.0,30.24,ESE,112,1.6,9.1,97,0.00,,,0.00,Rainwise IP-100,2013-03-12 02:20:00,
2013-03-11 22:25:00,41.9,41.0,30.24,SE,135,5.8,9.6,97,0.00,,,0.00,Rainwise IP-100,2013-03-12 02:25:00,
2013-03-11 22:30:00,41.9,41.0,30.24,SSE,157,8.9,11.2,97,0.00,,,0.00,Rainwise IP-100,2013-03-12 02:30:00,
2013-03-11 22:35:00,41.9,41.0,30.24,SE,135,1.9,11.7,97,0.00,,,0.00,Rainwise IP-100,2013-03-12 02:35:00,
2013-03-11 22:40:00,41.9,41.0,30.24,SE,135,2.3,9.1,97,0.00,,,0.00,Rainwise IP-100,2013-03-12 02:40:00,
2013-03-11 22:45:00,41.9,41.0,30.24,SE,135,3.5,7.9,97,0.00,,,0.00,Rainwise IP-100,2013-03-12 02:45:00,
2013-03-11 22:50:00,42.0,41.0,30.24,SSE,157,8.2,13.1,97,0.00,,,0.00,Rainwise IP-100,2013-03-12 02:50:00,
2013-03-11 22:55:00,42.1,41.0,30.24,SE,135,2.1,11.0,97,0.00,,,0.00,Rainwise IP-100,2013-03-12 02:55:00,
2013-03-11 23:00:00,42.0,41.0,30.24,SE,135,3.3,7.5,97,0.00,,,0.00,Rainwise IP-100,2013-03-12 03:00:00,
2013-03-11 23:05:00,41.9,41.0,30.23,ESE,112,6.8,7.0,97,0.00,,,0.00,Rainwise IP-100,2013-03-12 03:05:00,
2013-03-11 23:10:00,41.9,41.0,30.23,SSE,157,3.3,9.1,97,0.00,,,0.00,Rainwise IP-100,2013-03-12 03:10:00,
2013-03-11 23:15:00,41.8,41.0,30.23,SSE,157,7.5,9.1,97,0.00,,,0.00,Rainwise IP-100,2013-03-12 03:15:00,
2013-03-11 23:20:00,41.7,41.0,30.23,ESE,112,6.3,8.4,97,0.00,,,0.00,Rainwise IP-100,2013-03-12 03:20:00,
2013-03-11 23:25:00,41.7,41.0,30.23,SSE,157,5.4,7.9,97,0.00,,,0.00,Rainwise IP-100,2013-03-12 03:25:00,
2013-03-11 23:30:00,41.7,41.0,30.23,SSE,157,4.0,7.0,97,0.00,,,0.00,Rainwise IP-100,2013-03-12 03:30:00,
2013-03-11 23:35:00,41.8,41.0,30.22,SSE,157,2.1,8.4,97,0.00,,,0.00,Rainwise IP-100,2013-03-12 03:35:00,
2013-03-11 23:40:00,41.7,41.0,30.23,SSE,157,7.0,10.5,98,0.00,,,0.00,Rainwise IP-100,2013-03-12 03:40:00,
2013-03-11 23:45:00,41.7,41.0,30.23,SSE,157,2.3,9.1,98,0.00,,,0.00,Rainwise IP-100,2013-03-12 03:45:00,
2013-03-11 23:50:00,41.7,41.0,30.24,SSE,157,5.6,10.3,98,0.00,,,0.00,Rainwise IP-100,2013-03-12 03:50:00,
2013-03-11 23:55:00,41.7,41.0,30.24,SSE,157,4.2,8.9,98,0.00,,,0.00,Rainwise IP-100,2013-03-12 03:55:00,